ELY542 LGAV-LLBG

Flight info

Callsign ELY542
Flight time N/A
Altitude 39000
Route KEA2F/21L KEA N132 TUXEM UT514 PEXAN UM601 MADEX UN132 KUPIS UN134 VANZA DCT PIKOG L609 ZUKKO
Aircraft B738/M-SDE2E3FGHIJ1LORVWXY/LB1

Departure

Time N/A
Airport Athens Eleftherios Venizelos International Airport (LGAV)

Arrival

Time 2026-05-07 17:16
Airport Ben Gurion International Airport (LLBG)
Time Latitude Longitude Altitude Speed Heading
2026-05-07 17:01 32.31716 34.62481 7551 ft 284 kts 115°
2026-05-07 17:01 32.30875 34.64599 7269 ft 283 kts 115°
2026-05-07 17:01 32.30089 34.66682 7029 ft 279 kts 111°
2026-05-07 17:01 32.29398 34.68820 6787 ft 276 kts 109°
2026-05-07 17:02 32.28776 34.70935 6696 ft 269 kts 107°
2026-05-07 17:02 32.28173 34.73021 6653 ft 268 kts 107°
2026-05-07 17:02 32.27565 34.75117 6627 ft 271 kts 108°
2026-05-07 17:02 32.26944 34.77244 6600 ft 275 kts 109°
2026-05-07 17:03 32.26315 34.79386 6565 ft 276 kts 109°
2026-05-07 17:03 32.25681 34.81536 6533 ft 276 kts 109°
2026-05-07 17:03 32.25047 34.83680 6500 ft 276 kts 109°
2026-05-07 17:03 32.24421 34.85794 6472 ft 276 kts 109°
2026-05-07 17:04 32.23787 34.87929 6433 ft 275 kts 109°
2026-05-07 17:04 32.23155 34.90060 6406 ft 274 kts 109°
2026-05-07 17:04 32.22523 34.92185 6383 ft 274 kts 109°
2026-05-07 17:04 32.21892 34.94304 6355 ft 274 kts 109°
2026-05-07 17:05 32.21259 34.96429 6325 ft 273 kts 109°
2026-05-07 17:05 32.20627 34.98547 6302 ft 273 kts 109°
2026-05-07 17:05 32.19814 35.00560 6250 ft 272 kts 126°
2026-05-07 17:05 32.18702 35.02322 6245 ft 271 kts 129°
2026-05-07 17:06 32.17566 35.04104 6190 ft 271 kts 127°
2026-05-07 17:06 32.16451 35.05891 6170 ft 268 kts 127°
2026-05-07 17:06 32.15355 35.07672 6148 ft 269 kts 127°
2026-05-07 17:06 32.14249 35.09479 6133 ft 273 kts 127°
2026-05-07 17:07 32.13135 35.11301 6099 ft 273 kts 127°
2026-05-07 17:07 32.11940 35.12989 6073 ft 272 kts 139°
2026-05-07 17:07 32.10486 35.14411 6061 ft 271 kts 143°
2026-05-07 17:07 32.08986 35.15777 6031 ft 271 kts 147°
2026-05-07 17:08 32.07249 35.16584 5906 ft 269 kts 175°
2026-05-07 17:08 32.05394 35.16645 5727 ft 266 kts 184°
2026-05-07 17:08 32.03583 35.16584 5547 ft 261 kts 183°
2026-05-07 17:08 32.01784 35.16537 5367 ft 257 kts 183°
2026-05-07 17:09 32.00045 35.16498 5185 ft 253 kts 184°
2026-05-07 17:09 31.98298 35.16462 5023 ft 248 kts 184°
2026-05-07 17:09 31.96579 35.16430 4839 ft 246 kts 183°
2026-05-07 17:09 31.94881 35.16389 4648 ft 241 kts 186°
2026-05-07 17:10 31.93795 35.16176 4535 ft 236 kts 197°
2026-05-07 17:10 31.91737 35.15476 4336 ft 228 kts 201°
2026-05-07 17:10 31.90425 35.14527 4161 ft 222 kts 232°
2026-05-07 17:10 31.89911 35.13505 4076 ft 216 kts 253°
2026-05-07 17:11 31.89645 35.11809 3962 ft 206 kts 271°
2026-05-07 17:11 31.89667 35.10161 3780 ft 196 kts 276°
2026-05-07 17:11 31.89932 35.08658 3659 ft 186 kts 303°
2026-05-07 17:11 31.90688 35.07474 3556 ft 176 kts 304°
2026-05-07 17:12 31.91281 35.06245 3425 ft 169 kts 302°
2026-05-07 17:12 31.91879 35.05101 3363 ft 162 kts 304°
2026-05-07 17:12 31.92479 35.03973 3148 ft 162 kts 306°
2026-05-07 17:12 31.93068 35.02843 2939 ft 162 kts 305°
2026-05-07 17:13 31.93659 35.01702 2709 ft 161 kts 306°
2026-05-07 17:13 31.94222 35.00610 2454 ft 151 kts 304°
2026-05-07 17:13 31.94765 34.99557 2297 ft 155 kts 304°
2026-05-07 17:13 31.95329 34.98464 2034 ft 153 kts 307°
2026-05-07 17:14 31.95869 34.97421 1822 ft 146 kts 308°
2026-05-07 17:14 31.96386 34.96419 1613 ft 143 kts 308°
2026-05-07 17:14 31.96890 34.95441 1423 ft 140 kts 308°
2026-05-07 17:14 31.97402 34.94455 1233 ft 142 kts 307°
2026-05-07 17:15 31.97891 34.93430 1005 ft 143 kts 305°
2026-05-07 17:15 31.98396 34.92428 810 ft 141 kts 309°
2026-05-07 17:15 31.98913 34.91464 622 ft 137 kts 307°
2026-05-07 17:15 31.99438 34.90494 425 ft 143 kts 306°
2026-05-07 17:16 31.99946 34.89503 194 ft 142 kts 305°
2026-05-07 17:16 32.00435 34.88574 124 ft 116 kts 301°
2026-05-07 17:16 32.00781 34.87912 118 ft 73 kts 301°
2026-05-07 17:16 32.00967 34.87552 118 ft 34 kts 302°
2026-05-07 17:17 32.01048 34.87338 115 ft 26 kts 283°
2026-05-07 17:17 32.01066 34.87154 114 ft 0 kts 266°
2026-05-07 17:17 32.01066 34.87148 114 ft 2 kts 266°
2026-05-07 17:17 32.01064 34.87108 114 ft 8 kts 269°
2026-05-07 17:18 32.01065 34.87019 113 ft 14 kts 271°
2026-05-07 17:18 32.01041 34.86931 113 ft 10 kts 213°
2026-05-07 17:18 32.00967 34.86960 114 ft 17 kts 123°
2026-05-07 17:18 32.00891 34.87108 112 ft 25 kts 121°
2026-05-07 17:19 32.00802 34.87278 116 ft 23 kts 121°
2026-05-07 17:19 32.00719 34.87436 114 ft 22 kts 121°
2026-05-07 17:19 32.00640 34.87592 117 ft 22 kts 121°
2026-05-07 17:19 32.00530 34.87680 117 ft 19 kts 167°
2026-05-07 17:20 32.00401 34.87716 118 ft 16 kts 173°
2026-05-07 17:20 32.00369 34.87665 118 ft 8 kts 285°
2026-05-07 17:20 32.00373 34.87627 118 ft 2 kts 265°
2026-05-07 17:20 32.00372 34.87620 118 ft 0 kts 264°